Home   Weather   San Luis Potosi   Past weeks

Flag for Mexico Past Weather in San Luis Potosi, San Luis Potosí, Mexico — Yesterday and Last 2 Weeks

Now
66 °F

Scattered showers. Partly sunny.


Feels Like: 66 °F
Forecast: N/A
Wind: 7 mph from Southwest

Location: San Luis Potosi - S. L. P.

Current Time: Jun 27, 2017 at 5:21:28 pm

Latest Report: Jun 27, 2017 at 4:45 pm


Visibility: 10 mi

Pressure: 30.15 "Hg (24.21 "Hg at 1876m altitude)

Humidity: 68%

Dew Point: 55 °F

Location of San Luis PotosiLocation

Past Weather in San Luis Potosi — Graph

°F

San Luis Potosi Temperature Yesterday

Maximum temperature yesterday: 77 °F (at 5:43 pm)
Minimum temperature yesterday: 61 °F (at 5:34 am)
Average temperature yesterday: 67 °F

High & Low Weather Summary for the Past Weeks

 TemperatureHumidityPressure
High90 °F (Jun 17, 4:48 pm)100% (Jun 17, 7:40 am)30.37 "Hg (Jun 17, 7:40 am)
Low54 °F (Jun 16, 6:42 am)9% (Jun 17, 1:41 pm)29.53 "Hg (Jun 22, 6:41 pm)
Average70 °F51%30.04 "Hg
* Reported Jun 12 3:45 pm — Jun 27 3:51 pm, San Luis Potosi. Weather by CustomWeather, © 2017

Note: Actual official high and low records may vary slightly from our data, if they occured in-between our weather recording intervals... More about our weather records

Advertising

San Luis Potosi Weather History for the Previous 24 Hours

Scroll right to see more
 ConditionsComfort  
Time TempWeatherWind HumidityBarometerVisibility
3:51 pm
Tue, Jun 27
73 °FScattered showers. Partly sunny.14 mph57%29.75 "Hg10 mi
2:41 pm75 °FPartly sunny.10 mph44%30.18 "Hg15 mi
1:40 pm73 °FScattered clouds.6 mph47%30.22 "Hg15 mi
12:46 pm72 °FScattered clouds.3 mph53%29.84 "Hg15 mi
11:40 am66 °FScattered clouds.3 mph68%30.25 "Hg15 mi
10:42 am63 °FPartly sunny.3 mph77%30.27 "Hg10 mi
9:43 am61 °FMore clouds than sun.No wind94%29.87 "Hg7 mi
8:42 am57 °FLight rain. More clouds than sun.3 mph100%30.29 "Hg7 mi
7:45 am57 °FLight rain. Cloudy.5 mph100%30.28 "Hg5 mi
6:52 am59 °FLight rain. Overcast.8 mph94%29.87 "Hg4 mi
5:42 am63 °FDrizzle. Overcast.No wind94%30.25 "Hg5 mi
4:48 am63 °FOvercast.5 mph94%30.25 "Hg7 mi
3:48 am63 °FOvercast.No wind73%29.83 "Hg8 mi
2:48 am63 °FPassing clouds.6 mph73%30.25 "Hg8 mi
1:48 am63 °FPassing clouds.8 mph73%30.27 "Hg8 mi
12:52 am64 °FPassing clouds.9 mph78%29.88 "Hg8 mi
11:51 pm
Mon, Jun 26
64 °FPassing clouds.8 mph78%30.28 "Hg10 mi
10:51 pm66 °FPassing clouds.6 mph68%30.25 "Hg10 mi
9:56 pm68 °FMostly cloudy.8 mph60%29.79 "Hg10 mi
8:40 pm70 °FPartly cloudy.5 mph53%30.23 "Hg10 mi
7:44 pm73 °FBroken clouds.8 mph44%30.20 "Hg15 mi
6:48 pm75 °FBroken clouds.7 mph39%29.79 "Hg15 mi
5:43 pm77 °FPartly sunny.12 mph36%30.19 "Hg15 mi
Weather by CustomWeather, © 2017

See weather overviewHow to use our weather pages